DELTA 1 DEB, 10662

Orbit data source: Space-Track

DELTA 1 DEB, 10662 is space debris in SSO originally from a launch on Thu, 29 Jul 1976 UTC launched from the Air Force Western Test Range (AFWTR). Debris objects in space refer to the collection of defunct objects orbiting the Earth. Examples of debris include non-operational satellites, rocket bodies, and fragments generated from explosions, collisions, or faulty payload assembly.

Loading next visibility...
Identifier
10662, 1976-077Y
Orbit
SSO
Country
Flag of USUS
Related business
Manufacturer
Unknown
Mission
Spacecraft
Bus & Motor
Unknown
Mass
Unknown
Launch date (UTC)
1976-07-29 (50 years ago)
Launch vehicle
Unknown
Launch site
Air Force Western Test Range (AFWTR)
Object type
Payload
Rocket body
Debris
Shape & HBR
Unknown shape, 0.2 m
Radar Cross Section
Small (<0.1 m²)

Expand to show TLE details & history
Last TLE update: 23 hours ago

TLE from 23 hours ago
0 DELTA 1 DEB
1 10662U 76077Y   26033.08134870  .00000343  00000-0  12377-2 0  9999
2 10662 100.8122  87.8305 0256051 130.8366 263.0936 12.92075949319851
Epoch: 2026-02-02T01:57Z
TLE epoch observation values (Epoch: 2026-02-02T01:57:08.527Z)
Latitude
30.47103°
Longitude
-80.15623°
Altitude
1,325.482 km
Speed
7.184 km/s
True Right ascension
05h 25m 38s
True Declination
30° 19' 55"
Sunlit
Object was in full shadow at epoch
Visualization orbit readout
Latitude
Unknown
Longitude
Unknown
Altitude
Unknown
Speed
Unknown
Apparent Right ascension
Unknown
Apparent Declination
Unknown
Sunlit
N/A
Visualization observer readout
Local Sidereal Time
02:47:08
Azimuth
Unknown
Elevation
Unknown
Doppler factor
Unknown
Orbital elements
Apogee altitude
1,487.093 km
Perigee altitude
1,094.369 km
Semi-major axis
7,668.868 km
Eccentricity
0.02561
Inclination
100.8122°
RAAN
87.8305°
Arg. of periapsis
130.8366°
True anomaly
260.19317°
Mean anomaly
263.0936°
Eccentric anomaly
261.64212°
Mean motion
3.23181 °/min
Orbital period
111.39 mins
BSTAR
0.0012377
Loading maneuver chart data...
Computing Atmospheric mass density...
Loading historical data...
Loading historical data...
Loading historical data...
Loading historical data...
Loading historical data...
Loading historical data...
Loading historical data...

Documentation

Showing up to 5 results
|